Previsão horária em Celldomolk

Hoje, 31 Julho, Sábado

Tempo Temperatura Precipitação Vento Pressão Humidade
00:00 +24°C° 0.3 mm 1 m/s 744 mmHg 64%
01:00 +23°C° 0.3 mm 1 m/s 744 mmHg 70%
02:00 +21°C° 0.8 mm 2 m/s 744 mmHg 76%
03:00 +21°C° 0.8 mm 2 m/s 744 mmHg 81%
04:00 +20°C° 0.8 mm 2 m/s 744 mmHg 87%
05:00 +21°C° 0.6 mm 3 m/s 744 mmHg 86%
06:00 +21°C° 0.6 mm 3 m/s 745 mmHg 85%
07:00 +22°C° 0.6 mm 4 m/s 745 mmHg 83%
08:00 +23°C° 0.1 mm 4 m/s 745 mmHg 74%
09:00 +26°C° 0.1 mm 4 m/s 746 mmHg 65%
10:00 +27°C° 0.1 mm 4 m/s 746 mmHg 56%
11:00 +28°C° 0 mm 4 m/s 746 mmHg 51%
12:00 +30°C° 0 mm 4 m/s 745 mmHg 45%
13:00 +31°C° 0 mm 3 m/s 745 mmHg 40%
14:00 +31°C° 0 mm 3 m/s 745 mmHg 39%
15:00 +31°C° 0 mm 3 m/s 745 mmHg 39%
16:00 +33°C° 0 mm 3 m/s 744 mmHg 38%
17:00 +30°C° 0.1 mm 3 m/s 744 mmHg 45%
18:00 +28°C° 0.1 mm 3 m/s 744 mmHg 52%
19:00 +26°C° 0.1 mm 3 m/s 744 mmHg 59%
20:00 +25°C° 0.5 mm 3 m/s 745 mmHg 67%
21:00 +22°C° 0.5 mm 3 m/s 745 mmHg 76%
22:00 +20°C° 0.5 mm 2 m/s 745 mmHg 84%
23:00 +20°C° 0.1 mm 2 m/s 745 mmHg 87%

Amanhã, 1 Agosto, Domingo

Tempo Temperatura Precipitação Vento Pressão Humidade
00:00 +20°C° 0.1 mm 2 m/s 745 mmHg 89%
01:00 +19°C° 0.1 mm 2 m/s 745 mmHg 91%
02:00 +19°C° 0.1 mm 2 m/s 745 mmHg 91%
03:00 +19°C° 0.1 mm 2 m/s 744 mmHg 92%
04:00 +19°C° 0.1 mm 1 m/s 744 mmHg 92%
05:00 +20°C° 0 mm 1 m/s 744 mmHg 88%
06:00 +21°C° 0 mm 1 m/s 744 mmHg 84%
07:00 +22°C° 0 mm 1 m/s 743 mmHg 80%
08:00 +25°C° 0 mm 3 m/s 743 mmHg 69%
09:00 +27°C° 0 mm 4 m/s 743 mmHg 58%
10:00 +30°C° 0 mm 6 m/s 742 mmHg 46%
11:00 +33°C° 0 mm 6 m/s 742 mmHg 41%
12:00 +34°C° 0 mm 6 m/s 741 mmHg 35%
13:00 +36°C° 0 mm 7 m/s 741 mmHg 29%
14:00 +34°C° 0.1 mm 7 m/s 741 mmHg 39%
15:00 +31°C° 0.1 mm 8 m/s 741 mmHg 48%
16:00 +27°C° 0.1 mm 8 m/s 741 mmHg 57%
17:00 +24°C° 0.6 mm 7 m/s 741 mmHg 68%
18:00 +21°C° 0.6 mm 7 m/s 742 mmHg 79%
19:00 +17°C° 0.6 mm 6 m/s 743 mmHg 89%
20:00 +17°C° 0.2 mm 6 m/s 744 mmHg 89%
21:00 +17°C° 0.2 mm 6 m/s 744 mmHg 88%
22:00 +16°C° 0.2 mm 6 m/s 744 mmHg 88%
23:00 +16°C° 0 mm 6 m/s 745 mmHg 87%

Depois de amanhã, 2 Agosto, Segunda-feira

Tempo Temperatura Precipitação Vento Pressão Humidade
00:00 +16°C° 0 mm 6 m/s 745 mmHg 85%
01:00 +16°C° 0 mm 6 m/s 745 mmHg 84%
02:00 +16°C° 0 mm 6 m/s 746 mmHg 81%
03:00 +16°C° 0 mm 5 m/s 746 mmHg 79%
04:00 +17°C° 0 mm 5 m/s 746 mmHg 76%
05:00 +17°C° 0 mm 5 m/s 746 mmHg 73%
06:00 +19°C° 0 mm 5 m/s 747 mmHg 69%
07:00 +19°C° 0 mm 5 m/s 747 mmHg 65%
08:00 +19°C° 0 mm 4 m/s 748 mmHg 63%
09:00 +20°C° 0 mm 4 m/s 748 mmHg 62%
10:00 +20°C° 0 mm 4 m/s 749 mmHg 60%
11:00 +22°C° 0 mm 3 m/s 749 mmHg 54%
12:00 +24°C° 0 mm 3 m/s 748 mmHg 49%
13:00 +26°C° 0 mm 3 m/s 748 mmHg 43%
14:00 +26°C° 0 mm 3 m/s 748 mmHg 41%
15:00 +27°C° 0 mm 3 m/s 748 mmHg 38%
16:00 +28°C° 0 mm 3 m/s 748 mmHg 36%
17:00 +26°C° 0 mm 3 m/s 748 mmHg 40%
18:00 +25°C° 0 mm 2 m/s 748 mmHg 44%
19:00 +24°C° 0 mm 2 m/s 748 mmHg 48%
20:00 +21°C° 0 mm 2 m/s 748 mmHg 52%
21:00 +20°C° 0 mm 2 m/s 748 mmHg 56%
22:00 +19°C° 0 mm 2 m/s 749 mmHg 60%
23:00 +19°C° 0 mm 2 m/s 749 mmHg 63%

3 Agosto, Terça-feira

Tempo Temperatura Precipitação Vento Pressão Humidade
00:00 +19°C° 0 mm 1 m/s 749 mmHg 67%
01:00 +18°C° 0 mm 1 m/s 749 mmHg 71%
02:00 +18°C° 0 mm 1 m/s 749 mmHg 74%
03:00 +16°C° 0 mm 1 m/s 750 mmHg 76%
04:00 +16°C° 0 mm 1 m/s 750 mmHg 79%
05:00 +19°C° 0 mm 1 m/s 750 mmHg 73%
06:00 +20°C° 0 mm 1 m/s 750 mmHg 66%
07:00 +22°C° 0 mm 1 m/s 750 mmHg 60%
08:00 +24°C° 0 mm 1 m/s 750 mmHg 53%
09:00 +26°C° 0 mm 1 m/s 750 mmHg 47%
10:00 +28°C° 0 mm 1 m/s 750 mmHg 41%
11:00 +29°C° 0 mm 2 m/s 749 mmHg 38%
12:00 +30°C° 0 mm 2 m/s 749 mmHg 36%
13:00 +31°C° 0 mm 3 m/s 748 mmHg 34%
14:00 +31°C° 0 mm 3 m/s 748 mmHg 32%
15:00 +31°C° 0 mm 3 m/s 747 mmHg 31%
16:00 +31°C° 0 mm 2 m/s 746 mmHg 30%
17:00 +30°C° 0 mm 2 m/s 746 mmHg 33%
18:00 +28°C° 0 mm 2 m/s 746 mmHg 36%
19:00 +27°C° 0 mm 1 m/s 745 mmHg 39%
20:00 +25°C° 0.2 mm 3 m/s 745 mmHg 49%
21:00 +22°C° 0.2 mm 4 m/s 746 mmHg 59%
22:00 +21°C° 0.2 mm 5 m/s 746 mmHg 68%
23:00 +20°C° 0.2 mm 4 m/s 746 mmHg 72%

4 Agosto, Quarta-feira

Tempo Temperatura Precipitação Vento Pressão Humidade
00:00 +20°C° 0.2 mm 3 m/s 746 mmHg 76%
01:00 +19°C° 0.2 mm 2 m/s 745 mmHg 79%
02:00 +18°C° 0 mm 2 m/s 746 mmHg 83%
03:00 +18°C° 0 mm 2 m/s 746 mmHg 86%
04:00 +17°C° 0 mm 3 m/s 746 mmHg 89%
05:00 +18°C° 0 mm 4 m/s 746 mmHg 85%
06:00 +19°C° 0 mm 4 m/s 747 mmHg 80%
07:00 +19°C° 0 mm 5 m/s 747 mmHg 75%
08:00 +21°C° 0 mm 5 m/s 747 mmHg 65%
09:00 +23°C° 0 mm 5 m/s 747 mmHg 55%
10:00 +26°C° 0 mm 5 m/s 747 mmHg 45%
11:00 +27°C° 0 mm 4 m/s 747 mmHg 41%
12:00 +28°C° 0 mm 4 m/s 747 mmHg 38%
13:00 +29°C° 0 mm 4 m/s 747 mmHg 35%
14:00 +29°C° 0 mm 3 m/s 747 mmHg 35%
15:00 +29°C° 0 mm 3 m/s 746 mmHg 34%
16:00 +29°C° 0 mm 3 m/s 746 mmHg 34%
17:00 +28°C° 0.1 mm 3 m/s 746 mmHg 38%
18:00 +26°C° 0.1 mm 3 m/s 746 mmHg 43%
19:00 +25°C° 0.1 mm 3 m/s 746 mmHg 48%
20:00 +24°C° 0 mm 3 m/s 747 mmHg 51%
21:00 +22°C° 0 mm 3 m/s 747 mmHg 55%
22:00 +21°C° 0 mm 3 m/s 747 mmHg 59%
23:00 +20°C° 0.1 mm 2 m/s 747 mmHg 66%

5 Agosto, Quinta-feira

Tempo Temperatura Precipitação Vento Pressão Humidade
00:00 +19°C° 0.1 mm 2 m/s 747 mmHg 73%
01:00 +18°C° 0.1 mm 2 m/s 747 mmHg 81%
02:00 +18°C° 0.1 mm 2 m/s 747 mmHg 81%
03:00 +18°C° 0.1 mm 2 m/s 747 mmHg 81%
04:00 +19°C° 0.1 mm 1 m/s 747 mmHg 82%
05:00 +20°C° 0 mm 1 m/s 747 mmHg 80%
06:00 +19°C° 0 mm 2 m/s 747 mmHg 78%
07:00 +19°C° 0 mm 2 m/s 747 mmHg 76%
08:00 +19°C° 0.8 mm 2 m/s 747 mmHg 80%
09:00 +19°C° 0.8 mm 2 m/s 747 mmHg 83%
10:00 +18°C° 0.8 mm 2 m/s 747 mmHg 86%
11:00 +18°C° 2.8 mm 2 m/s 747 mmHg 88%
12:00 +17°C° 2.8 mm 2 m/s 747 mmHg 90%
13:00 +17°C° 2.8 mm 2 m/s 747 mmHg 91%
14:00 +17°C° 0.1 mm 2 m/s 746 mmHg 87%
15:00 +18°C° 0.1 mm 2 m/s 746 mmHg 84%
16:00 +19°C° 0.1 mm 1 m/s 745 mmHg 80%
17:00 +19°C° 0 mm 1 m/s 745 mmHg 81%
18:00 +18°C° 0 mm 1 m/s 745 mmHg 83%
19:00 +18°C° 0 mm 1 m/s 745 mmHg 84%
20:00 +16°C° 0 mm 1 m/s 745 mmHg 86%
21:00 +16°C° 0 mm 1 m/s 745 mmHg 88%
22:00 +15°C° 0 mm 1 m/s 745 mmHg 89%
23:00 +15°C° 0 mm 2 m/s 745 mmHg 90%
Mostrar mais

Necessitamos do seu Consentimento

A Meteoprog e os seus Fornecedores de Serviços podem armazenar e aceder a dados pessoais como cookies, identificadores do dispositivo ou outras tecnologias semelhantes existentes no seu dispositivo e processar estes dados para personalizar conteúdos e anúncios, assim como funcionalidades nas redes sociais e análise de tráfego.

  • Armazenar e/ou aceder a informações no seu dispositivo

    Os cookies, identificadores do dispositivo ou outras informações podem ser armazenados ou acedidos no seu dispositivo, para os fins acima indicados.

  • Anúncios e conteúdos personalizados, medição de anúncios e conteúdos, dados sobre o público-alvo e desenvolvimento de produtos

    Os anúncios e os conteúdos podem ser personalizados com base num perfil. Podem ser adicionados dados adicionais para uma maior personalização dos anúncios e dos conteúdos. A eficácia dos anúncios e dos conteúdos pode ser medida. Podem ser obtidas informações sobre o público que visualizou os anúncios e os conteúdos. Estes dados podem ser usados para desenvolver ou melhorar sistemas, softwares ou a experiência do utilizador.

Ao clicar em "Eu concordo”, permitirá o uso de cookies, identificadores do dispositivo e web beacons mencionados ou outras tecnologias semelhantes. As configurações do navegador do seu dispositivo podem ser alteradas.

Para certos fins, podem ser invocados interesses legítimos ao invés de consentimento. Pode ler mais informação sobre este assunto na nossa Política de Privacidade e Cookies.